Location: Newark
(34.0131°N, 4.3314°W)
Time: 14:44:03
(UTC+00:00)

A-11 Canister half - Pass Details

Date: 24 October 2019
Orbit: 1514 x 1686 km, 47.2° (Epoch: 13 November)

Event Time Altitude Azimuth Distance (km) Brightness Sun altitude
Rises 08:30:54 0° 303° (WNW) 4,767 11.0 22.3°
Reaches altitude 10° 08:34:07 10° 298° (WNW) 3,757 10.5 22.8°
Maximum altitude 08:43:06 50° 227° (SW) 1,871 9.7 24.4°
Drops below altitude 10° 08:51:53 10° 154° (SSE) 3,664 12.2 25.8°
Sets 08:55:00 0° 149° (SSE) 4,641 12.6 26.3°
